Location: Newark
(44.3681°N, 100.3364°W)
Time: 14:14:37
(UTC+00:00)

Explorer 7 - Pass Details

Date: 24 February 2020
Orbit: 485 x 679 km, 50.3° (Epoch: 05 April)

Event Time Altitude Azimuth Distance (km) Brightness Sun altitude
Rises 18:00:42 0° 235° (SW) 2,988 10.8 34.8°
Reaches altitude 10° 18:03:05 10° 234° (SW) 2,058 10.1 34.9°
Maximum altitude 18:07:50 76° 150° (SSE) 654 8.1 35.1°
Drops below altitude 10° 18:12:20 10° 64° (ENE) 1,956 9.6 35.3°
Sets 18:14:34 0° 63° (ENE) 2,828 10.3 35.4°
